Wind_Speed
31 31 31 31 31 31 31 32 32 32 33 33 33 34 35 35 35 35 36 36 37 37 38 38 39 39 39 39 38 38 37 37 36 36 35 35 34 33 32 31 29 28 28 28 28 29 29 28 28 28 28 29 29 30 30 30 30 31 32 32 32 32 32 30 28 26 25 23 22 22 22 23 23 23 23 22 21 20 20 19 18 18 18 19 19 19 20 21
32 32 32 32 32 33 33 33 33 33 33 34 34 34 35 36 36 37 37 37 38 38 39 39 40 40 41 41 41 41 40 40 39 38 38 38 37 36 35 33 32 30 29 29 28 29 30 30 30 29 29 30 30 30 31 31 31 32 33 33 32 32 32 32 31 29 28 26 25 23 22 21 21 22 23 23 23 23 23 22 21 21 21 21 21 21 22 23
33 34 34 34 34 34 34 34 34 34 34 35 35 35 35 36 37 37 38 38 38 39 40 40 41 41 42 43 43 44 43 43 42 41 41 40 39 38 37 36 35 33 32 31 30 29 30 31 31 31 30 31 30 31 31 32 31 32 33 33 33 32 32 32 32 31 30 29 28 26 24 22 21 21 22 23 23 24 24 24 23 23 23 23 23 23 23 24
34 34 34 35 35 35 36 36 36 36 36 36 36 36 36 36 37 37 38 38 39 39 40 41 41 42 42 43 44 45 45 45 45 44 44 43 42 41 40 39 37 36 35 33 32 31 31 31 32 32 32 32 31 31 31 31 32 32 33 33 33 33 32 32 33 32 32 31 30 29 27 25 24 23 22 22 22 23 23 24 23 23 23 23 23 23 24 24
34 34 35 35 36 36 37 37 37 37 37 37 38 38 37 38 38 38 38 39 39 40 40 41 41 42 42 43 44 45 46 46 47 46 46 45 44 43 42 41 40 38 37 36 35 33 32 32 32 33 33 33 32 32 31 31 32 33 33 33 34 33 32 32 33 33 33 32 32 31 29 29 27 26 25 23 23 22 22 23 23 23 23 23 23 23 24 24
34 34 35 35 36 37 37 38 38 38 38 38 39 39 39 39 38 39 39 39 40 40 40 41 41 42 42 43 43 44 45 46 47 47 47 47 46 45 44 43 42 41 40 39 37 36 34 33 33 33 34 34 33 33 32 32 32 32 33 33 34 34 33 32 33 33 33 33 33 32 31 31 30 29 27 26 25 25 24 24 24 25 24 24 24 24 24 24
33 34 34 35 36 36 37 38 38 39 39 39 39 40 40 40 40 40 40 41 41 41 41 41 41 42 42 42 43 43 45 46 46 47 47 47 47 46 45 45 43 42 41 40 40 39 37 36 35 34 34 35 34 34 33 32 32 32 33 33 34 34 33 33 33 33 33 34 34 33 33 33 33 32 30 29 29 28 27 27 27 27 26 26 25 25 25 25
32 33 34 35 35 36 37 37 38 39 39 40 40 41 41 41 41 41 41 42 42 42 42 42 42 42 42 42 42 43 44 45 46 47 47 47 47 47 46 46 45 44 43 42 41 41 40 38 37 36 36 36 35 35 35 34 33 32 32 33 33 34 34 33 33 33 33 33 34 34 33 33 34 33 32 32 31 31 30 30 30 29 29 28 27 27 28 28
31 32 33 34 34 35 36 36 37 38 39 40 40 41 42 42 42 42 42 42 43 43 43 42 42 42 43 43 43 43 44 44 45 46 47 47 47 47 47 46 46 45 44 44 43 42 42 40 39 38 38 37 37 36 36 35 34 33 33 33 33 34 34 33 33 33 33 34 34 34 33 33 34 34 33 33 32 32 32 32 32 31 30 29 29 29 29 29
31 32 32 33 33 34 34 35 36 37 38 39 40 41 42 42 43 43 43 43 44 44 44 44 44 43 43 43 44 44 43 44 45 45 46 47 47 47 47 47 46 46 45 45 44 43 43 42 41 39 39 39 39 38 37 36 36 34 34 34 34 34 35 34 33 33 33 34 35 36 34 32 33 35 35 34 34 34 34 33 33 32 31 30 29 29 28 28
32 32 33 33 33 33 33 34 34 35 36 37 38 40 41 42 43 43 44 44 45 45 45 45 45 45 45 45 45 45 44 44 45 45 46 46 47 47 47 47 47 46 46 45 45 45 44 44 43 41 41 40 40 39 39 37 36 36 35 34 35 35 36 35 34 33 32 33 35 37 37 33 32 36 37 36 36 36 36 35 34 33 32 31 29 28 27 27
33 33 34 34 34 34 33 33 33 33 34 34 35 37 39 40 41 42 43 44 45 45 45 45 45 45 46 46 46 45 45 45 45 45 46 46 46 47 47 47 47 46 46 46 46 46 45 45 44 43 42 42 41 41 40 39 37 37 36 35 36 36 37 37 36 35 33 33 34 36 41 37 32 35 39 38 38 39 39 37 35 35 33 32 30 28 27 27
35 35 34 34 34 34 34 33 33 33 32 32 33 34 36 38 39 40 41 42 43 44 45 45 45 45 46 48 47 46 46 46 45 46 46 46 46 47 46 46 46 46 46 46 46 46 46 46 46 45 44 43 42 42 41 41 39 38 37 37 37 37 37 38 37 36 35 34 34 34 41 44 36 34 39 40 40 41 41 40 38 37 35 34 32 30 29 29
39 38 37 36 35 34 34 34 33 33 32 31 32 32 33 36 37 37 39 40 40 42 43 43 44 45 46 48 47 47 47 47 47 46 46 47 47 47 46 46 46 46 46 46 46 46 46 47 46 46 45 44 44 42 42 42 41 39 38 38 38 38 38 39 38 37 36 35 35 33 38 47 43 37 38 39 40 42 42 41 40 39 37 36 35 34 34 35
42 41 41 40 39 38 37 36 35 34 33 32 31 30 31 33 35 34 36 37 37 39 40 41 43 43 46 48 48 47 48 48 48 48 47 47 48 48 47 46 46 46 45 45 45 46 46 46 47 47 46 46 45 44 43 43 42 40 39 39 39 39 39 40 40 38 36 36 37 33 35 45 48 44 41 39 40 42 42 42 41 40 39 38 38 38 39 39
43 43 43 43 42 42 41 40 39 38 36 34 33 32 30 31 33 32 32 34 34 35 36 38 39 40 43 47 47 47 48 48 48 48 48 48 48 48 47 47 46 45 45 45 45 45 45 45 47 47 47 47 46 44 44 44 44 42 40 39 40 41 40 41 41 40 37 38 38 35 34 41 47 48 45 42 41 42 43 43 42 41 41 40 40 40 41 42
44 44 44 44 44 44 44 43 42 41 40 38 37 35 33 32 32 31 31 31 31 32 33 35 36 36 40 43 45 46 46 47 48 48 49 49 49 49 48 47 46 46 45 45 45 45 44 45 47 47 48 48 46 45 45 45 45 43 41 40 41 42 42 42 42 41 39 39 39 36 33 38 46 50 48 45 43 44 44 44 44 44 43 42 42 42 43 43
46 45 45 45 45 46 46 45 45 44 44 42 40 39 37 35 34 34 32 31 31 31 31 32 33 34 37 39 42 43 44 46 48 49 49 49 49 49 48 47 47 46 44 44 44 43 43 45 46 48 49 48 46 46 46 45 46 45 43 41 42 43 43 44 43 41 40 39 40 38 33 36 44 50 51 48 45 45 46 45 46 46 45 45 44 43 44 45
48 48 48 47 47 47 47 47 46 46 46 45 43 42 41 38 37 36 35 34 33 33 32 32 32 33 36 37 39 41 42 44 46 48 49 49 49 48 48 48 47 45 45 44 43 43 43 44 46 49 49 48 47 48 47 46 46 45 44 43 43 44 44 46 44 42 41 39 40 40 34 34 41 46 51 51 48 47 48 47 48 48 47 47 46 45 45 46
49 50 50 50 50 49 49 48 48 48 49 48 47 45 44 42 40 38 37 36 36 36 35 35 34 35 36 38 39 40 41 43 45 47 49 49 48 48 48 47 46 46 45 44 42 42 43 43 46 49 48 48 48 48 47 46 46 46 45 44 44 44 45 47 45 43 43 39 40 41 35 35 39 42 48 51 50 51 50 49 52 51 49 47 47 46 46 47
49 51 52 52 52 52 51 51 50 50 51 50 50 48 47 46 43 41 40 39 39 38 37 37 37 37 39 40 41 41 42 42 44 46 47 47 47 47 47 47 46 45 45 43 41 42 42 42 47 48 46 48 48 48 47 46 46 46 46 45 46 46 45 47 47 44 44 40 39 41 36 35 40 41 47 50 50 53 52 51 55 53 50 48 48 47 47 47
50 51 52 53 53 54 53 53 54 53 53 52 52 51 50 48 46 45 42 41 42 41 39 39 39 39 41 42 43 44 44 43 45 46 46 46 47 46 45 46 45 45 45 44 42 41 41 43 47 46 46 48 48 48 48 47 47 47 46 46 46 48 47 46 47 47 45 42 40 40 35 35 39 41 48 49 46 53 55 55 58 56 51 51 49 48 48 48
51 52 52 53 54 55 54 55 56 56 55 54 54 53 53 51 49 47 44 41 42 45 43 41 41 41 43 44 45 46 45 46 46 47 47 46 46 46 44 45 45 45 46 45 43 41 42 44 47 46 46 47 47 48 48 48 47 46 47 47 47 50 49 46 47 48 46 44 41 40 34 32 37 40 48 50 44 50 58 60 61 59 55 54 53 51 50 50
52 54 54 54 54 55 55 55 57 57 57 56 56 56 55 54 52 50 48 42 39 44 47 45 44 43 44 46 47 48 47 47 48 49 49 47 47 46 45 45 45 45 47 46 43 41 43 46 46 47 47 46 47 48 49 49 47 46 48 49 49 50 50 47 47 47 46 45 44 42 35 29 34 38 45 52 49 49 55 61 64 62 61 60 57 56 54 53
53 54 55 56 56 56 56 56 57 58 59 58 57 58 57 56 55 53 51 45 39 42 48 49 48 47 48 49 50 51 49 49 50 51 51 50 49 47 46 46 45 46 47 46 43 42 45 49 47 47 48 47 47 49 51 50 46 45 48 52 51 50 50 49 48 47 46 46 46 46 40 30 31 34 39 48 51 49 52 59 65 65 65 66 63 60 58 55
55 55 55 57 57 57 57 57 58 59 59 59 58 59 58 57 57 56 54 48 39 40 47 50 50 49 52 54 54 54 51 50 53 53 52 51 50 49 48 48 47 48 48 47 44 42 46 50 49 48 48 49 49 50 53 52 47 46 49 53 52 51 51 50 49 48 46 46 45 48 47 35 28 31 37 44 48 50 52 55 63 67 68 70 68 64 61 58
60 59 58 58 58 58 58 58 60 60 60 60 59 59 59 58 57 57 56 47 36 37 44 47 50 50 53 56 57 58 55 53 54 54 54 53 52 51 50 50 50 50 49 48 45 44 48 51 50 50 49 50 51 53 54 53 50 48 49 53 53 53 52 50 51 50 49 47 43 48 54 40 28 30 38 43 47 52 55 54 60 67 72 74 72 67 64 60
65 64 62 61 60 59 59 60 60 61 62 61 61 61 59 59 57 57 55 43 32 35 41 43 48 52 55 58 60 61 59 56 56 56 56 55 53 53 52 52 53 51 51 51 48 48 51 51 52 52 51 52 53 54 54 54 53 50 51 53 53 54 53 52 53 52 52 47 41 48 56 46 33 32 39 44 48 53 57 57 61 68 74 75 73 70 66 61
69 68 67 66 64 63 62 62 61 62 62 62 63 62 60 60 57 56 52 39 30 36 41 42 46 51 56 60 61 61 60 58 57 56 57 56 54 54 53 54 54 53 53 52 50 52 53 52 53 53 53 55 55 55 56 56 55 54 54 54 55 56 55 55 54 54 54 47 42 49 56 51 39 33 40 47 49 54 57 59 64 70 74 75 74 71 66 62
71 71 71 70 69 68 66 66 65 64 64 63 63 63 62 61 58 55 47 36 36 42 44 44 47 51 57 60 62 62 61 60 59 58 58 57 56 55 55 56 56 55 55 54 53 56 56 54 55 56 57 59 59 59 59 58 58 58 58 57 58 57 56 57 56 57 57 48 46 51 54 54 44 35 42 49 50 54 57 61 68 72 74 75 74 70 66 63
72 73 73 73 74 73 72 70 69 69 68 67 66 65 64 62 59 53 42 38 44 47 46 49 52 55 59 60 61 62 62 61 61 61 60 59 58 56 57 58 59 58 58 57 57 59 58 57 58 59 61 61 61 61 60 60 60 60 60 60 61 60 59 59 57 60 59 50 49 53 54 54 46 41 48 52 52 55 57 64 70 71 73 75 73 68 64 63
72 73 74 75 76 77 77 76 75 75 73 71 71 69 67 65 58 48 42 44 48 47 49 56 58 59 60 58 58 60 61 61 63 63 62 60 58 57 58 59 60 62 61 60 61 62 60 60 61 63 64 64 63 63 62 62 61 62 62 63 65 64 64 63 61 62 60 53 53 55 55 53 46 45 52 53 54 55 57 65 70 70 73 75 70 65 63 64
72 72 73 75 77 79 80 80 80 80 78 77 76 73 72 69 56 46 47 50 51 52 56 60 61 62 62 60 60 62 63 63 64 65 64 62 59 56 58 59 61 64 63 62 64 63 62 61 62 66 66 65 65 66 65 64 64 64 65 67 68 68 70 68 65 65 61 57 57 57 57 53 47 48 50 50 54 55 57 66 69 69 73 74 68 64 64 65
75 74 73 75 77 80 82 83 84 84 83 83 81 79 77 67 55 51 53 54 57 60 61 61 63 64 63 62 62 63 65 66 65 66 65 62 58 56 57 59 62 64 65 66 64 65 64 59 60 66 66 64 66 68 68 67 67 66 68 70 69 70 75 74 69 67 64 60 57 57 56 49 45 46 43 45 53 54 56 64 67 69 73 73 67 65 67 67
78 76 76 76 78 81 83 84 85 86 88 87 86 84 76 65 59 59 58 57 62 65 64 65 66 65 63 62 62 65 68 69 68 68 67 63 60 57 56 59 63 65 68 69 67 68 67 59 57 63 64 64 66 67 68 69 68 68 69 70 70 71 75 75 71 68 67 64 56 54 53 45 43 43 39 45 53 53 57 64 66 69 72 71 68 68 70 69
79 79 79 78 80 83 84 85 86 88 90 90 90 86 74 66 66 65 62 63 66 67 69 70 68 66 64 62 64 66 69 71 70 69 68 66 63 59 57 61 66 69 70 72 72 72 71 65 60 62 63 64 67 67 68 69 69 69 68 68 69 71 72 74 73 69 69 68 58 54 53 46 41 40 39 47 55 54 58 64 65 69 73 72 71 72 72 70
82 82 82 79 80 84 86 86 88 91 92 93 92 84 74 70 70 69 68 68 69 71 74 74 71 69 67 65 65 67 71 73 70 69 70 69 65 60 61 66 69 71 73 76 79 78 77 74 67 65 66 66 68 69 67 67 69 71 70 69 70 72 72 74 76 74 73 74 65 57 55 48 41 41 42 50 55 56 60 63 65 71 75 75 74 73 73 72
85 85 83 80 82 85 87 89 91 92 94 94 89 81 76 75 74 74 76 74 73 74 76 76 74 73 72 70 67 68 72 74 72 73 73 72 67 62 64 68 70 73 76 80 83 82 82 82 74 69 70 71 70 69 66 66 70 72 71 71 72 74 75 76 79 79 78 80 74 63 57 50 45 46 48 52 58 61 63 64 65 71 76 76 75 74 74 73
90 88 84 82 85 88 89 91 94 95 96 93 86 80 78 77 77 78 80 79 79 79 77 76 76 77 76 74 73 73 75 75 75 76 75 74 70 64 64 69 71 74 78 82 85 85 86 88 82 76 75 75 71 68 68 69 71 73 73 73 73 75 77 78 80 81 81 84 82 72 64 52 46 50 53 57 63 66 66 64 66 73 78 77 76 75 74 73
95 92 87 84 88 90 91 94 96 98 98 93 87 82 79 79 80 80 82 83 84 84 82 79 78 78 76 76 77 78 79 79 77 78 77 75 71 67 67 70 74 77 79 82 85 86 88 91 88 83 80 76 72 70 71 71 72 75 76 76 76 77 81 81 80 80 81 84 83 80 73 54 45 53 58 61 67 69 68 66 67 76 80 78 77 75 73 74
101 97 90 88 90 94 96 98 98 99 98 93 88 85 83 83 82 81 83 84 85 85 85 83 81 79 77 77 79 80 82 82 80 80 79 76 74 72 71 73 76 78 80 83 84 86 89 92 92 89 82 76 71 70 71 71 73 76 78 79 80 82 85 85 84 80 81 85 82 83 81 59 47 56 62 64 70 70 70 69 69 77 80 78 77 74 73 76
108 103 97 95 96 98 101 102 100 100 98 92 88 89 90 89 85 82 82 84 86 86 86 85 84 83 82 81 81 81 83 83 82 82 81 79 78 77 76 76 78 79 81 84 85 87 91 95 95 92 85 78 71 69 69 70 72 75 77 79 82 84 85 87 89 85 84 86 81 85 85 61 47 61 69 67 69 70 72 71 70 76 78 77 76 74 75 78
112 109 104 103 103 103 105 105 102 100 98 95 94 94 94 93 90 87 85 86 88 88 88 87 86 86 85 84 84 83 83 83 81 80 80 80 78 78 80 80 80 81 83 85 86 89 93 96 95 93 88 80 73 68 67 68 72 75 76 78 80 81 83 87 89 86 86 85 81 87 87 61 49 64 70 65 67 70 73 72 71 74 76 76 77 77 79 80
115 114 112 110 109 109 109 106 103 102 101 100 100 98 97 96 94 91 89 90 90 90 89 88 88 89 89 88 88 88 87 86 82 80 82 82 80 80 82 83 82 83 85 87 89 92 95 96 96 95 89 80 72 67 67 70 75 77 75 76 78 80 83 85 86 87 88 84 83 91 89 69 61 68 67 65 71 75 76 75 73 74 75 78 81 82 82 82
118 119 118 116 116 116 113 108 107 107 105 103 102 101 100 99 96 94 94 94 93 92 92 91 90 91 92 93 93 91 91 92 90 89 90 88 86 84 85 86 86 86 88 90 92 95 97 98 97 95 89 81 72 67 69 74 78 77 75 77 80 82 85 87 88 90 89 86 88 93 90 81 76 73 67 71 80 83 81 78 76 75 79 83 87 86 84 83
121 122 121 121 122 122 118 113 112 112 110 108 107 105 103 102 99 98 98 97 95 95 96 95 95 94 94 94 94 93 94 95 95 95 93 91 90 89 89 90 91 91 91 93 95 97 99 98 94 92 89 84 77 72 75 82 85 84 83 83 84 85 88 91 91 88 88 92 97 95 91 90 84 72 67 76 89 90 82 78 79 81 85 89 91 88 86 86
126 126 125 124 125 126 124 120 118 117 115 114 113 111 109 107 104 102 101 98 97 98 99 99 98 96 95 94 96 96 96 97 98 97 93 91 92 92 91 91 92 93 94 95 96 97 98 96 91 89 89 89 86 84 88 94 97 95 93 92 91 91 93 94 91 87 92 101 103 95 91 94 87 74 72 83 93 90 81 80 85 89 90 92 91 89 89 92
131 130 129 128 128 130 130 126 123 122 121 120 120 119 117 115 111 107 103 101 101 102 103 101 99 98 97 98 100 100 100 101 101 98 94 94 96 96 94 93 93 94 94 96 97 98 100 99 94 94 96 97 96 96 99 104 105 103 102 99 95 94 95 95 91 90 97 106 105 97 95 96 89 80 83 92 94 88 85 88 91 93 94 95 94 93 95 98
136 135 134 133 132 133 132 129 128 128 128 127 125 124 123 120 116 112 108 109 109 108 107 106 103 101 101 103 105 105 105 105 103 100 98 100 102 102 100 98 97 96 97 99 101 103 106 106 103 103 105 105 102 101 105 110 111 109 107 104 99 97 98 98 96 96 101 106 105 101 100 96 88 87 95 98 93 90 92 93 94 96 99 100 99 99 101 103
138 138 137 137 136 136 135 134 134 134 134 132 130 128 126 124 121 118 116 115 114 113 113 111 107 105 106 109 111 111 109 107 105 103 104 107 109 109 107 104 103 102 104 105 107 109 111 111 109 109 112 110 105 105 111 116 117 116 114 110 104 101 102 104 103 102 103 104 104 104 105 99 91 93 101 100 94 92 94 96 98 100 102 103 104 105 107 108
140 140 141 141 141 141 140 139 140 139 138 137 134 132 130 128 125 123 122 122 120 118 117 116 113 113 114 115 116 113 110 109 111 110 110 113 114 114 112 110 109 109 109 109 110 112 114 114 114 116 119 116 111 112 118 121 123 124 119 111 107 107 109 111 110 108 107 106 106 108 108 104 98 99 102 101 96 94 97 100 102 102 102 106 109 111 112 112
143 143 144 145 145 145 145 144 145 145 143 140 137 135 134 132 129 127 127 127 125 122 121 119 117 116 117 117 115 112 111 113 115 116 117 118 119 118 117 117 116 115 114 114 115 116 118 119 120 122 124 122 119 120 124 126 129 126 117 113 114 115 116 115 114 113 112 110 110 110 108 106 103 102 104 104 101 99 102 104 103 103 106 109 113 115 116 116
Wind_Direction
276 277 278 280 281 282 283 284 285 286 287 289 289 290 290 290 290 289 289 288 288 289 289 288 286 283 281 280 279 279 280 282 283 284 285 286 287 289 291 292 294 297 300 303 307 309 312 315 318 321 324 328 330 332 334 336 339 341 343 344 346 348 348 346 341 339 340 340 337 333 329 327 326 324 324 326 329 331 332 332 330 329 329 328 327 325 323 322
272 274 276 277 278 279 280 281 283 284 285 287 287 288 289 289 289 289 289 289 289 290 290 290 290 288 286 284 282 281 281 282 283 284 285 285 286 287 289 291 292 294 296 299 302 305 308 311 314 317 320 323 326 329 331 333 336 339 341 341 342 344 345 345 343 340 339 338 338 337 333 328 323 320 319 320 322 323 323 323 322 322 321 320 319 318 317 316
269 270 272 274 276 277 277 278 280 281 283 284 285 286 287 287 287 287 288 288 289 290 290 290 290 290 289 288 286 284 284 283 284 284 285 285 286 286 287 289 291 292 294 295 298 301 303 306 309 313 316 319 322 325 327 329 333 336 338 338 338 339 341 342 341 339 337 336 336 337 336 333 328 324 321 321 321 320 318 317 317 316 315 313 312 312 311 310
267 268 269 271 272 274 275 276 277 279 281 282 284 284 285 285 286 285 285 286 288 288 289 289 290 290 290 289 288 287 286 286 285 285 286 286 286 286 287 288 289 291 292 293 295 297 299 302 305 308 311 314 317 320 323 326 329 332 334 336 336 336 337 339 339 337 335 334 333 333 334 332 330 329 327 325 323 321 318 317 316 314 313 312 310 309 308 307
264 265 267 268 269 271 273 274 276 277 279 280 282 283 284 284 284 284 284 284 286 287 287 288 289 289 289 289 289 288 287 287 286 286 286 287 287 287 288 288 288 289 290 291 292 293 295 297 300 303 306 309 312 315 319 322 325 328 330 333 334 333 333 334 335 334 333 332 331 330 330 329 328 328 327 326 324 322 321 319 317 316 315 313 312 310 308 308
263 264 264 265 266 267 269 271 273 275 276 278 279 281 282 282 283 283 283 283 284 285 286 287 288 288 289 289 288 288 288 287 287 287 287 287 287 288 288 288 288 288 289 290 290 291 292 293 295 298 301 304 307 310 314 318 321 324 327 329 331 331 330 329 331 331 330 330 329 328 327 325 325 325 325 324 324 323 323 321 320 318 317 315 312 310 309 308
264 264 263 264 264 265 266 268 270 271 274 275 277 279 280 280 281 281 282 283 284 285 286 287 287 288 289 289 288 288 287 287 287 286 286 286 287 287 287 288 288 288 288 288 289 290 290 291 292 294 297 300 303 306 309 313 316 319 322 325 327 328 327 325 326 328 327 327 327 326 324 323 322 322 321 322 322 323 323 323 322 320 318 316 313 311 309 308
267 265 264 264 264 264 264 265 266 268 270 272 274 276 277 278 279 280 280 282 283 284 285 286 287 288 289 290 289 289 288 287 286 286 286 286 285 286 286 287 287 287 287 288 288 288 289 289 291 292 294 296 299 302 305 308 311 314 317 320 323 324 324 322 322 323 324 324 324 324 323 320 318 318 318 319 320 321 322 322 322 320 318 316 314 312 310 309
269 268 267 266 265 264 264 264 264 265 267 269 271 273 274 276 277 277 278 280 281 283 284 285 286 288 288 289 290 290 289 288 287 287 286 285 285 285 285 285 285 285 286 286 286 287 287 287 288 290 291 293 296 298 301 304 306 310 313 315 318 320 322 321 318 318 320 320 320 320 321 318 314 314 314 315 317 318 319 320 319 318 316 314 312 311 310 310
271 270 270 268 267 267 266 266 265 264 264 265 267 269 271 273 274 275 276 277 279 280 282 283 284 285 286 287 288 289 289 289 289 288 286 286 285 285 284 284 284 284 284 284 285 285 285 285 286 286 288 289 292 295 297 300 302 305 308 311 314 316 318 319 316 314 314 316 316 314 316 319 314 310 312 312 313 314 315 317 317 316 314 311 309 308 308 310
273 273 272 272 271 270 270 269 268 267 266 265 265 266 268 270 272 273 274 275 276 278 279 280 282 283 284 285 286 287 288 288 288 288 287 286 285 284 284 283 283 282 283 283 283 283 284 284 284 284 285 286 289 292 295 297 299 302 304 307 310 312 314 316 315 312 310 311 312 309 307 315 315 308 309 311 310 311 312 314 315 315 312 309 307 305 307 310
274 274 274 274 275 275 274 274 273 272 270 269 268 267 268 269 270 271 273 273 275 276 277 278 279 280 281 282 283 284 285 286 286 287 286 286 285 284 283 283 282 281 281 281 281 282 282 283 283 283 283 284 286 289 292 295 297 299 301 304 306 308 310 313 314 311 308 307 309 307 301 305 312 306 305 308 309 309 309 311 313 313 312 309 306 303 304 307
275 275 275 275 275 276 276 276 276 276 275 274 273 272 271 271 272 273 274 274 275 276 277 278 279 279 280 280 281 282 283 284 284 285 285 285 285 284 283 282 282 281 280 280 280 280 280 281 282 282 281 282 283 285 288 292 294 296 299 301 303 305 306 309 311 311 309 306 307 308 300 299 304 302 299 302 305 306 306 308 311 311 311 310 306 302 302 305
277 276 276 275 275 275 274 274 275 275 275 275 275 275 275 275 275 276 277 278 279 279 279 280 280 280 280 280 280 281 281 282 282 283 283 284 284 283 283 282 281 281 280 280 279 278 278 279 280 280 280 280 280 282 285 288 291 293 296 298 300 301 303 305 307 309 309 306 305 307 302 299 302 300 296 298 300 301 302 305 308 308 308 308 307 304 303 304
278 278 278 277 276 275 274 273 273 273 272 273 273 274 275 276 277 279 279 281 282 282 283 283 282 282 281 280 281 281 280 280 280 281 281 282 282 283 283 282 282 281 281 280 279 278 277 277 278 279 279 278 278 280 282 285 287 290 292 295 297 298 300 301 304 307 307 306 304 305 303 300 302 301 299 298 297 297 298 301 303 303 302 303 304 303 302 303
277 278 279 279 278 277 277 276 275 274 274 273 273 273 273 275 277 278 280 282 283 285 285 285 285 285 283 282 282 281 280 280 280 280 280 280 281 282 282 282 282 281 281 280 279 277 276 276 276 277 278 277 277 278 280 282 284 286 289 292 294 295 297 298 301 305 306 306 305 305 303 299 301 301 301 301 299 297 296 298 299 298 297 298 299 300 299 300
275 276 277 278 279 279 278 278 278 277 276 276 275 274 274 275 277 279 280 283 285 287 288 288 289 289 286 284 284 283 282 281 280 280 279 279 279 281 281 282 281 281 281 280 279 278 277 276 275 276 276 275 276 277 278 280 282 284 286 289 291 293 294 295 299 302 304 305 304 305 304 299 299 300 301 303 302 299 297 298 298 296 295 296 297 298 297 298
275 275 275 275 276 278 279 279 279 279 279 278 277 277 276 276 278 280 281 283 285 287 290 292 294 294 292 289 287 286 285 283 281 280 279 279 279 279 281 281 281 281 281 280 280 279 278 276 275 275 274 274 275 276 276 278 280 282 284 287 289 291 292 293 297 299 301 304 303 303 307 300 296 298 301 303 304 302 300 299 298 296 295 296 296 297 297 297
273 273 273 273 274 275 277 278 279 279 279 279 279 279 279 278 278 280 282 283 284 286 289 291 295 296 295 294 292 291 289 285 283 281 279 279 279 279 280 280 281 281 281 281 281 281 279 277 276 274 273 274 274 275 275 276 278 280 282 285 287 288 290 291 295 297 298 302 301 301 307 301 294 296 300 302 304 302 300 300 298 296 295 295 295 295 295 296
272 272 272 272 273 273 274 275 276 277 278 279 279 279 280 280 279 280 281 282 283 285 287 289 292 294 295 295 295 294 292 288 284 281 279 279 279 279 279 280 281 281 281 281 282 282 280 279 277 275 274 275 274 274 274 275 276 278 280 282 284 285 288 290 293 295 296 301 299 299 306 302 294 295 297 299 302 301 301 300 297 296 295 295 295 295 295 296
271 272 272 272 272 272 272 273 273 274 276 277 278 278 279 279 280 280 280 282 282 283 285 288 289 291 292 293 294 294 292 289 286 282 280 280 280 279 280 280 281 282 282 283 283 282 281 281 278 276 276 275 274 274 274 275 275 276 278 280 282 283 285 288 291 293 295 299 298 298 305 302 296 297 294 296 302 302 302 301 297 295 297 297 296 295 295 295
269 271 272 272 272 272 272 272 272 273 274 275 276 277 277 278 278 279 279 281 283 283 284 286 287 289 290 290 290 290 290 289 286 284 283 282 282 281 282 282 282 283 284 284 283 283 283 282 279 278 276 274 274 275 275 274 274 275 277 278 280 282 283 287 290 291 293 297 297 296 303 301 297 298 292 292 301 302 301 299 295 296 298 297 296 295 295 295
269 269 270 271 272 273 273 273 273 273 273 274 275 275 276 277 277 277 277 279 283 285 285 285 287 288 289 288 286 284 285 285 285 285 285 285 285 285 285 285 285 285 284 284 284 285 284 282 281 280 277 276 276 276 275 275 274 276 277 278 279 280 283 285 287 290 292 296 296 295 300 300 298 299 292 291 299 300 299 298 296 299 300 299 298 297 297 297
269 269 269 270 271 272 273 274 274 274 274 273 274 274 275 276 276 276 276 276 280 285 286 286 287 288 287 285 283 281 281 282 284 285 285 286 287 289 289 288 288 287 285 285 286 287 285 283 282 281 280 278 278 277 276 275 275 277 278 279 279 280 283 284 285 288 291 295 296 295 295 296 299 299 293 294 300 299 298 298 299 301 302 301 300 299 299 300
270 269 269 269 270 271 272 273 274 274 275 275 275 275 275 275 276 276 276 276 277 281 284 286 287 287 285 281 279 279 280 282 282 282 284 286 288 290 291 290 290 288 287 287 287 288 287 284 282 282 282 281 279 279 278 277 277 279 280 279 280 281 283 285 285 286 290 293 296 295 292 293 300 298 290 293 298 298 297 297 300 302 302 301 300 300 301 302
272 271 270 270 269 270 270 271 272 273 275 275 275 276 276 276 276 276 277 278 280 279 280 283 285 285 283 280 279 278 279 281 281 282 284 285 287 288 289 289 289 288 288 288 289 288 285 284 283 283 282 282 281 280 279 279 280 279 280 280 282 283 283 285 286 287 289 292 296 294 289 293 303 294 287 290 293 295 295 296 299 301 300 299 299 300 301 301
273 273 272 272 271 271 271 271 271 272 273 274 275 275 276 277 277 277 278 281 285 282 280 281 282 281 280 279 280 279 279 279 280 282 283 284 285 286 287 287 287 287 288 288 289 287 284 284 285 284 284 283 282 281 281 282 282 281 280 281 283 284 284 285 285 287 288 291 297 292 286 295 305 292 288 290 289 291 293 296 299 299 298 297 298 299 300 302
273 273 273 273 273 273 272 271 271 271 272 272 273 273 274 275 276 277 279 281 286 286 282 279 278 278 278 278 278 278 279 278 279 281 282 282 283 284 285 285 285 286 286 286 288 286 284 285 285 286 286 284 282 282 283 283 283 283 282 282 283 284 285 286 286 287 287 291 296 289 287 297 304 297 292 288 287 290 293 297 298 296 295 295 296 298 300 302
273 273 273 273 274 274 273 273 272 271 271 271 272 272 273 273 274 276 278 281 287 285 281 277 274 275 276 277 277 277 279 279 279 280 280 281 282 282 283 284 284 284 284 286 286 284 283 283 284 286 285 284 283 284 284 284 285 285 284 284 284 284 285 285 286 286 286 291 293 288 290 297 303 304 293 287 289 291 293 297 296 293 292 293 295 297 300 301
274 274 274 274 274 274 274 274 273 272 272 272 271 271 271 272 272 273 276 283 283 279 278 277 274 272 272 273 275 277 279 280 280 279 279 280 281 281 282 282 282 283 284 285 284 282 282 283 284 284 283 283 283 284 284 285 286 286 286 285 284 284 284 284 286 286 286 291 293 290 293 296 303 305 291 288 292 292 295 296 292 290 291 292 293 296 299 298
273 274 275 275 275 275 274 274 273 273 273 273 273 272 272 271 271 274 280 281 276 274 277 277 274 271 271 272 274 276 278 279 279 279 279 279 280 281 282 282 283 283 283 283 282 281 282 283 283 283 283 283 284 284 285 286 286 287 287 286 285 284 284 285 287 286 288 293 293 292 294 296 303 302 292 292 294 294 296 293 289 290 290 290 291 295 297 295
272 273 274 275 275 275 275 274 274 273 273 273 273 273 273 272 273 281 284 278 273 272 275 275 273 272 271 271 273 274 276 277 277 277 278 278 279 281 282 283 283 283 282 282 281 281 282 282 283 283 283 283 285 285 286 286 287 287 287 286 286 287 287 287 287 287 290 295 294 293 293 295 300 297 292 295 296 296 295 290 288 290 289 288 291 295 296 294
269 271 272 273 274 275 274 274 274 274 274 273 273 273 273 273 278 283 281 276 274 271 269 270 271 271 271 272 273 274 275 275 275 276 276 277 279 281 282 283 283 283 283 282 281 281 281 281 282 283 282 284 285 285 285 286 286 286 287 287 288 290 289 288 288 289 292 293 292 292 291 292 294 293 293 298 297 295 291 288 288 290 289 289 293 296 295 295
267 268 270 270 271 272 273 273 273 274 274 274 274 273 273 276 282 281 277 275 273 270 268 267 267 267 269 272 273 275 275 274 274 275 275 277 279 280 281 282 282 283 283 282 282 282 281 280 281 282 283 285 285 285 286 286 286 287 287 288 290 291 290 289 290 291 291 289 289 289 289 292 293 292 297 299 296 292 288 287 288 289 289 290 294 296 295 296
267 268 269 269 270 271 271 272 273 273 273 274 274 274 276 281 283 278 275 274 272 271 271 268 266 265 265 267 270 273 274 275 276 276 276 278 279 279 280 282 282 282 283 283 283 282 280 280 280 281 283 285 284 285 286 286 288 289 289 290 292 291 291 293 293 293 291 288 288 287 289 294 297 299 304 299 293 290 287 286 288 290 290 292 295 296 296 297
266 266 267 268 270 270 270 271 272 272 272 273 273 274 278 282 280 277 276 274 273 272 271 269 268 268 266 266 267 269 272 273 274 276 278 278 278 279 281 282 282 283 284 284 282 281 281 281 279 279 281 282 283 284 285 288 291 291 291 292 292 292 293 295 294 293 292 290 289 288 289 295 301 305 304 296 293 292 287 287 290 293 293 294 296 296 296 297
267 266 266 267 269 269 270 270 270 271 271 271 271 274 277 278 277 277 276 274 272 271 270 270 270 270 270 268 267 269 270 271 272 273 275 275 276 278 281 281 282 283 284 282 281 282 282 281 280 280 280 280 281 283 286 290 291 290 290 291 292 293 294 294 293 293 293 291 291 292 293 298 306 307 298 291 292 290 286 287 291 293 293 293 294 295 295 296
267 266 266 267 268 269 269 269 269 270 270 270 271 274 274 274 274 275 274 273 273 272 271 271 271 271 271 271 270 270 270 271 271 271 271 272 273 275 278 279 280 281 282 282 281 282 283 282 281 280 280 280 281 284 288 289 288 289 291 292 293 294 294 293 293 293 293 293 293 294 295 299 308 307 297 293 292 289 287 289 292 291 291 291 292 293 293 295
266 266 266 266 266 267 268 269 269 269 269 270 272 273 273 273 273 273 273 274 273 273 273 273 273 272 271 272 273 272 271 272 272 271 272 272 273 274 275 276 276 277 278 279 281 282 282 282 282 281 280 280 282 286 287 287 288 290 292 292 294 295 294 292 292 293 295 295 295 296 294 299 308 304 297 295 292 290 290 292 293 291 290 290 291 292 293 295
266 266 266 266 266 266 266 267 267 268 269 270 272 272 273 272 272 271 272 272 273 274 274 274 274 273 273 273 273 273 273 272 272 272 273 274 275 275 273 273 273 274 275 277 279 280 281 282 282 281 279 280 283 284 285 287 289 290 291 293 294 294 292 291 293 296 297 296 297 298 296 303 310 301 295 293 290 289 291 292 292 289 289 290 291 292 294 295
267 267 267 267 266 266 265 265 266 267 269 271 273 274 273 271 270 270 271 271 272 273 274 274 275 275 275 274 273 273 273 273 273 273 274 275 275 274 273 272 273 273 274 276 277 278 279 280 280 279 279 280 282 283 285 287 288 289 291 292 292 291 291 293 295 296 295 295 298 299 299 307 312 299 292 289 288 289 291 290 288 286 287 289 290 292 295 294
268 269 269 267 266 265 266 265 266 267 269 271 273 272 272 271 270 270 270 271 271 272 273 273 274 275 275 275 275 274 274 273 273 273 274 275 274 275 274 273 272 273 274 274 276 276 277 277 278 279 280 281 282 283 285 287 288 288 289 289 289 290 292 293 292 293 294 294 298 298 298 306 310 296 290 289 289 291 291 290 287 285 286 288 290 293 294 293
268 269 268 267 266 265 265 266 267 269 269 270 269 268 269 270 271 271 271 270 270 271 272 272 273 274 275 276 276 275 275 274 273 273 274 274 273 274 274 273 273 274 274 274 275 275 275 276 277 279 280 281 284 286 287 288 288 288 287 288 289 290 290 289 289 291 291 294 298 295 294 304 306 293 290 292 293 293 292 290 287 286 289 291 292 293 292 292
267 267 267 267 267 266 266 267 269 269 268 268 268 268 269 269 270 271 271 270 269 270 270 271 271 272 273 274 275 275 276 276 276 274 273 272 273 273 274 275 274 273 274 274 275 275 276 276 277 279 280 282 285 287 289 289 287 287 288 289 290 290 288 288 289 289 290 295 296 291 292 300 299 290 292 297 295 293 291 290 289 291 293 293 292 292 292 293
265 266 267 268 268 268 268 268 268 268 268 268 268 269 269 268 269 269 269 269 269 270 271 271 271 271 272 273 274 276 277 277 277 275 273 273 274 274 274 274 273 273 273 273 274 274 275 276 277 279 281 283 284 286 287 286 285 286 288 288 288 289 289 289 288 289 293 294 291 288 292 295 292 290 295 298 295 292 290 291 293 294 294 292 292 292 293 294
264 265 266 267 269 270 270 269 268 269 269 269 269 268 268 268 267 267 267 268 270 271 272 271 271 271 272 273 274 274 275 275 274 274 274 276 276 275 273 273 273 272 272 272 273 273 274 274 276 279 281 282 282 282 282 283 285 286 287 286 287 288 289 289 289 292 295 292 288 289 292 292 290 292 295 296 293 291 292 294 295 295 293 292 293 293 294 295
263 264 266 267 268 269 269 269 269 270 270 269 268 268 267 267 267 267 268 269 269 269 269 269 270 271 272 273 272 272 272 272 272 274 275 276 275 274 272 271 271 272 272 272 272 273 274 274 276 278 280 280 281 281 282 285 286 286 286 286 287 288 289 289 291 293 292 289 287 289 290 289 290 293 294 292 289 290 293 295 294 293 293 292 292 294 295 295
262 263 265 265 266 267 269 270 270 269 268 267 268 269 269 269 269 269 269 269 268 268 268 268 269 271 271 272 272 271 271 270 271 272 274 275 274 273 272 271 271 271 271 271 272 273 274 275 276 277 277 278 280 282 284 286 286 286 286 286 287 289 291 292 293 291 287 285 287 288 288 288 290 294 292 288 287 291 293 293 292 292 292 291 292 294 294 293
262 263 264 265 265 266 267 268 268 267 268 268 269 270 271 271 271 270 269 268 269 269 269 269 269 270 271 271 270 270 269 270 272 273 274 273 272 271 270 270 270 270 270 271 272 273 273 274 275 276 276 278 280 284 285 284 284 285 285 285 287 291 292 292 291 287 284 284 286 287 286 286 289 291 289 287 290 293 292 291 291 291 290 291 293 293 293 292
261 262 263 264 264 264 265 265 266 267 268 269 269 270 271 272 272 271 270 269 269 269 269 270 270 269 269 268 269 269 270 272 273 273 272 271 270 270 270 271 271 272 272 273 274 274 275 276 277 278 278 279 282 284 283 282 283 283 283 285 290 292 291 290 290 287 285 285 285 284 283 285 287 288 287 288 291 291 290 291 290 290 291 292 293 293 292 291
260 261 262 263 263 263 264 264 265 266 267 268 269 270 271 271 271 271 270 269 269 269 269 271 271 270 269 268 269 270 271 272 271 271 270 270 270 271 272 273 274 273 274 274 275 275 276 277 278 280 280 281 282 282 281 282 282 282 284 289 292 290 288 290 292 290 288 286 284 283 283 284 286 286 287 288 289 289 289 288 288 290 291 292 292 292 291 291
259 259 260 261 261 262 263 263 265 266 266 268 269 269 270 270 270 269 269 269 270 270 270 270 269 268 268 269 270 271 271 270 270 271 270 270 270 272 273 274 274 274 274 274 275 275 276 278 279 280 281 282 282 282 282 282 282 283 288 292 290 287 289 293 293 291 288 286 285 285 285 285 286 286 287 287 287 287 287 287 289 290 290 290 291 291 290 291
Height
10845 10846 10846 10847 10847 10847 10848 10848 10848 10848 10848 10848 10848 10847 10847 10847 10847 10847 10847 10847 10847 10847 10847 10847 10846 10846 10846 10846 10845 10845 10845 10844 10844 10844 10843 10843 10843 10843 10843 10843 10842 10842 10841 10840 10839 10838 10837 10837 10837 10836 10835 10834 10833 10832 10830 10829 10828 10826 10824 10823 10822 10820 10819 10817 10815 10815 10815 10814 10814 10813 10812 10811 10810 10808 10807 10806 10806 10805 10805 10804 10802 10801 10800 10799 10798 10797 10796 10795
10842 10843 10843 10843 10844 10844 10845 10845 10845 10845 10845 10846 10845 10845 10845 10845 10845 10845 10844 10844 10844 10844 10844 10844 10844 10844 10843 10843 10843 10842 10842 10842 10842 10841 10841 10840 10840 10840 10840 10840 10839 10839 10839 10838 10837 10836 10835 10834 10834 10833 10833 10832 10831 10829 10828 10827 10825 10824 10822 10821 10819 10818 10817 10815 10814 10813 10812 10811 10811 10811 10810 10809 10808 10806 10805 10804 10804 10803 10802 10802 10800 10799 10798 10797 10796 10795 10794 10793
10839 10839 10840 10840 10841 10841 10842 10842 10842 10843 10843 10843 10843 10843 10843 10842 10842 10842 10842 10842 10841 10841 10841 10841 10841 10841 10840 10840 10840 10840 10839 10839 10839 10839 10838 10838 10838 10837 10837 10837 10837 10836 10836 10835 10835 10834 10833 10832 10831 10830 10830 10829 10828 10827 10826 10824 10823 10821 10820 10819 10817 10816 10815 10813 10812 10810 10809 10809 10808 10808 10807 10806 10805 10804 10803 10802 10801 10801 10800 10799 10798 10797 10796 10795 10794 10793 10792 10791
10836 10836 10836 10837 10837 10838 10838 10839 10839 10840 10840 10840 10840 10840 10840 10840 10839 10839 10839 10839 10839 10838 10838 10838 10837 10837 10837 10837 10837 10836 10836 10836 10836 10835 10835 10835 10835 10834 10834 10834 10834 10833 10833 10832 10832 10831 10831 10830 10828 10827 10827 10826 10826 10825 10824 10822 10821 10819 10818 10817 10815 10814 10812 10811 10809 10808 10807 10806 10805 10805 10804 10803 10802 10801 10801 10800 10799 10798 10797 10796 10796 10795 10794 10793 10792 10791 10790 10788
10832 10832 10833 10833 10834 10834 10835 10835 10836 10836 10837 10837 10837 10837 10837 10837 10836 10836 10836 10836 10835 10835 10835 10834 10834 10834 10834 10834 10833 10833 10833 10832 10832 10832 10832 10832 10832 10831 10831 10831 10831 10830 10830 10829 10829 10828 10828 10827 10826 10825 10824 10824 10823 10822 10822 10820 10818 10817 10816 10815 10813 10812 10811 10809 10807 10805 10804 10803 10803 10802 10801 10800 10799 10799 10798 10797 10797 10796 10795 10794 10793 10792 10792 10791 10790 10788 10787 10786
10828 10829 10829 10829 10830 10830 10831 10831 10832 10833 10833 10834 10833 10833 10833 10833 10833 10832 10832 10832 10832 10832 10832 10831 10831 10830 10830 10830 10830 10829 10829 10828 10828 10828 10828 10828 10828 10828 10828 10828 10827 10827 10827 10826 10825 10825 10825 10824 10823 10822 10822 10821 10820 10820 10819 10818 10816 10815 10813 10812 10811 10810 10809 10807 10806 10803 10802 10801 10800 10799 10798 10797 10796 10795 10795 10794 10793 10793 10792 10791 10791 10790 10789 10788 10787 10786 10785 10783
10824 10825 10825 10825 10826 10826 10827 10827 10828 10829 10829 10830 10830 10830 10829 10830 10830 10829 10829 10828 10828 10828 10828 10828 10827 10827 10826 10826 10826 10825 10825 10824 10824 10824 10824 10824 10824 10824 10824 10824 10824 10823 10823 10822 10822 10821 10821 10820 10820 10819 10819 10818 10817 10817 10816 10815 10815 10813 10811 10810 10809 10807 10806 10805 10804 10802 10800 10798 10797 10796 10795 10793 10792 10791 10791 10790 10790 10789 10789 10788 10787 10786 10785 10785 10784 10782 10781 10780
10821 10821 10821 10821 10821 10822 10822 10823 10824 10824 10825 10826 10826 10825 10825 10825 10825 10826 10825 10825 10824 10825 10824 10824 10824 10823 10823 10822 10822 10821 10821 10820 10820 10820 10819 10819 10819 10820 10820 10820 10819 10819 10819 10819 10818 10817 10817 10817 10816 10816 10815 10814 10814 10813 10813 10812 10812 10811 10809 10808 10807 10805 10804 10803 10801 10800 10798 10796 10795 10794 10793 10791 10789 10788 10787 10787 10786 10785 10785 10784 10783 10782 10781 10780 10779 10778 10777 10776
10817 10817 10817 10817 10817 10817 10818 10819 10819 10820 10821 10821 10821 10821 10821 10821 10821 10821 10821 10821 10820 10820 10820 10820 10820 10819 10819 10818 10817 10817 10817 10816 10816 10816 10815 10815 10815 10815 10815 10815 10815 10815 10814 10814 10814 10814 10813 10813 10812 10812 10811 10810 10810 10809 10809 10809 10808 10808 10807 10806 10805 10803 10802 10800 10798 10797 10795 10793 10792 10791 10791 10789 10786 10785 10784 10783 10782 10781 10781 10780 10779 10778 10777 10776 10775 10774 10773 10772
10814 10814 10814 10813 10813 10814 10814 10814 10815 10815 10816 10817 10817 10817 10816 10817 10816 10816 10817 10817 10816 10816 10816 10815 10815 10815 10814 10814 10813 10813 10812 10812 10811 10811 10810 10810 10810 10810 10811 10811 10810 10810 10810 10809 10809 10809 10809 10808 10808 10808 10807 10806 10806 10805 10805 10805 10804 10804 10804 10803 10802 10801 10800 10798 10796 10794 10793 10791 10789 10787 10787 10788 10785 10782 10781 10780 10779 10778 10777 10777 10777 10776 10774 10773 10772 10771 10770 10769
10811 10811 10811 10810 10810 10810 10810 10810 10811 10811 10812 10812 10812 10813 10812 10812 10812 10812 10812 10812 10812 10812 10811 10811 10811 10810 10810 10809 10809 10808 10808 10808 10807 10806 10806 10805 10805 10806 10806 10806 10805 10806 10806 10805 10805 10805 10804 10804 10804 10804 10803 10803 10802 10801 10801 10800 10800 10800 10800 10800 10799 10798 10797 10796 10794 10792 10790 10789 10786 10783 10781 10784 10784 10779 10777 10777 10776 10775 10774 10774 10774 10773 10772 10770 10769 10768 10767 10766
10808 10808 10808 10808 10807 10807 10807 10807 10807 10808 10808 10808 10809 10809 10808 10808 10808 10808 10808 10808 10808 10807 10807 10807 10806 10806 10806 10805 10805 10804 10803 10803 10802 10801 10801 10800 10800 10800 10801 10800 10800 10801 10801 10801 10800 10800 10799 10799 10799 10799 10799 10799 10798 10797 10796 10796 10796 10795 10795 10795 10795 10795 10794 10793 10791 10789 10787 10786 10784 10781 10774 10776 10782 10778 10773 10773 10773 10771 10770 10770 10771 10769 10769 10767 10766 10765 10764 10763
10805 10805 10805 10804 10804 10804 10805 10804 10804 10804 10804 10805 10805 10805 10805 10804 10804 10804 10804 10804 10804 10803 10803 10802 10802 10802 10801 10800 10800 10800 10799 10798 10798 10797 10796 10796 10795 10795 10795 10795 10795 10795 10795 10795 10795 10795 10795 10794 10794 10794 10794 10794 10794 10793 10792 10791 10791 10791 10790 10790 10790 10791 10791 10790 10788 10786 10784 10783 10782 10780 10771 10767 10775 10777 10772 10770 10769 10767 10766 10766 10767 10766 10764 10763 10762 10761 10760 10759
10802 10801 10801 10801 10801 10801 10801 10801 10801 10801 10801 10801 10801 10802 10802 10800 10800 10801 10800 10800 10800 10800 10799 10799 10798 10798 10797 10795 10795 10795 10794 10794 10793 10792 10791 10791 10790 10790 10790 10790 10790 10790 10790 10790 10790 10791 10790 10790 10789 10789 10789 10789 10789 10789 10789 10788 10787 10787 10786 10785 10785 10785 10786 10787 10786 10784 10782 10780 10779 10779 10772 10761 10764 10771 10770 10768 10766 10764 10762 10762 10762 10761 10759 10758 10757 10756 10755 10754
10798 10798 10797 10797 10797 10797 10797 10797 10797 10797 10797 10798 10798 10798 10798 10797 10797 10797 10797 10796 10796 10796 10796 10795 10794 10795 10793 10790 10790 10790 10789 10789 10788 10787 10787 10786 10785 10785 10785 10785 10785 10785 10785 10785 10785 10785 10785 10785 10785 10784 10783 10783 10784 10784 10784 10783 10783 10783 10782 10781 10780 10779 10780 10781 10782 10782 10780 10778 10776 10777 10773 10762 10757 10761 10764 10764 10763 10760 10757 10757 10757 10756 10754 10753 10752 10751 10750 10748
10794 10793 10793 10793 10793 10793 10793 10793 10793 10793 10793 10794 10794 10795 10795 10794 10793 10794 10794 10793 10793 10792 10792 10791 10791 10791 10789 10786 10786 10785 10784 10783 10783 10782 10782 10781 10780 10780 10780 10780 10779 10780 10780 10780 10780 10780 10780 10780 10779 10779 10778 10778 10779 10780 10780 10779 10778 10779 10779 10777 10776 10775 10774 10775 10777 10778 10777 10775 10773 10773 10772 10763 10755 10753 10756 10758 10758 10756 10753 10752 10752 10751 10750 10749 10748 10747 10745 10744
10789 10789 10788 10788 10788 10788 10788 10788 10789 10789 10789 10790 10791 10791 10792 10791 10790 10790 10790 10790 10789 10789 10788 10788 10787 10787 10785 10783 10782 10780 10779 10778 10777 10777 10776 10775 10775 10775 10775 10775 10774 10774 10775 10775 10774 10774 10775 10775 10774 10774 10773 10772 10773 10774 10775 10774 10773 10774 10774 10773 10772 10770 10769 10769 10771 10773 10773 10771 10769 10770 10770 10763 10754 10749 10749 10751 10752 10750 10748 10748 10747 10746 10745 10745 10744 10742 10741 10740
10784 10783 10783 10783 10783 10783 10783 10784 10784 10784 10784 10785 10786 10786 10788 10789 10787 10787 10787 10787 10786 10785 10785 10784 10784 10783 10781 10780 10778 10776 10775 10774 10772 10771 10770 10770 10770 10770 10770 10770 10769 10769 10769 10769 10769 10770 10770 10770 10769 10768 10766 10767 10769 10769 10769 10769 10768 10768 10769 10769 10767 10766 10764 10764 10766 10767 10768 10768 10765 10765 10767 10763 10754 10746 10742 10744 10746 10745 10742 10742 10741 10739 10740 10739 10739 10738 10736 10735
10778 10778 10778 10778 10778 10777 10778 10778 10779 10779 10778 10780 10781 10782 10782 10784 10784 10784 10783 10783 10783 10782 10782 10781 10781 10780 10777 10776 10774 10772 10771 10769 10767 10765 10764 10764 10764 10764 10764 10764 10764 10764 10764 10764 10764 10765 10765 10765 10764 10761 10761 10763 10764 10763 10763 10765 10764 10763 10763 10764 10763 10762 10759 10758 10761 10762 10762 10765 10761 10760 10763 10761 10754 10746 10738 10737 10739 10739 10737 10736 10734 10733 10735 10735 10734 10733 10732 10730
10773 10772 10772 10772 10772 10772 10772 10773 10773 10773 10772 10773 10775 10776 10777 10778 10780 10780 10780 10779 10779 10778 10778 10778 10778 10776 10774 10772 10770 10768 10766 10764 10762 10760 10759 10759 10759 10759 10759 10758 10758 10758 10758 10758 10760 10759 10759 10760 10757 10755 10756 10757 10757 10757 10758 10759 10759 10758 10758 10759 10758 10757 10755 10752 10755 10757 10757 10760 10758 10754 10758 10757 10751 10746 10738 10732 10732 10731 10731 10730 10727 10727 10729 10729 10729 10728 10727 10726
10767 10767 10766 10767 10767 10766 10767 10767 10767 10767 10767 10767 10768 10770 10772 10773 10774 10775 10776 10775 10775 10775 10774 10773 10773 10772 10770 10768 10766 10764 10761 10759 10756 10754 10753 10753 10753 10754 10753 10753 10753 10753 10752 10753 10755 10754 10754 10754 10750 10750 10752 10751 10750 10751 10752 10753 10754 10753 10753 10754 10753 10751 10752 10750 10749 10752 10752 10755 10754 10750 10754 10752 10746 10743 10735 10730 10729 10723 10724 10724 10718 10720 10723 10722 10723 10722 10721 10721
10761 10761 10760 10760 10760 10760 10761 10761 10761 10761 10761 10761 10762 10763 10765 10767 10769 10770 10771 10772 10770 10770 10771 10769 10769 10768 10766 10764 10762 10758 10756 10754 10751 10748 10748 10748 10747 10748 10749 10748 10748 10748 10747 10748 10749 10749 10750 10747 10743 10744 10746 10744 10745 10745 10745 10747 10748 10747 10748 10749 10747 10744 10747 10748 10744 10745 10747 10749 10750 10748 10750 10749 10742 10738 10729 10725 10728 10719 10715 10715 10709 10712 10717 10716 10716 10716 10716 10715
10755 10755 10754 10754 10754 10754 10755 10755 10754 10754 10755 10756 10756 10756 10758 10760 10762 10764 10766 10769 10768 10763 10764 10766 10764 10763 10761 10758 10755 10752 10750 10748 10745 10743 10742 10744 10743 10743 10745 10743 10743 10743 10741 10742 10743 10745 10744 10740 10738 10738 10739 10739 10739 10739 10738 10740 10741 10743 10742 10742 10741 10739 10741 10745 10741 10740 10741 10743 10745 10744 10748 10747 10740 10735 10722 10717 10725 10719 10708 10704 10700 10703 10707 10707 10708 10708 10709 10709
10749 10748 10748 10748 10747 10747 10748 10748 10748 10748 10748 10749 10750 10750 10752 10753 10755 10757 10759 10765 10768 10761 10757 10758 10759 10759 10755 10752 10748 10745 10745 10743 10741 10738 10736 10739 10739 10739 10740 10739 10739 10738 10735 10736 10738 10740 10737 10733 10733 10731 10732 10733 10733 10732 10731 10732 10736 10738 10736 10734 10734 10734 10734 10738 10738 10736 10736 10737 10737 10738 10744 10746 10740 10735 10722 10710 10714 10715 10706 10696 10692 10695 10695 10695 10698 10699 10701 10702
10743 10742 10741 10741 10741 10741 10742 10742 10741 10740 10741 10742 10744 10744 10745 10747 10748 10750 10752 10758 10765 10761 10753 10751 10752 10752 10748 10744 10741 10738 10739 10739 10735 10732 10732 10733 10734 10735 10735 10733 10733 10732 10730 10731 10734 10735 10730 10724 10727 10727 10726 10726 10726 10725 10722 10724 10731 10733 10729 10725 10727 10730 10728 10730 10732 10733 10734 10732 10731 10729 10734 10743 10742 10735 10725 10712 10706 10704 10703 10696 10687 10687 10686 10684 10687 10691 10693 10695
10737 10736 10735 10734 10734 10734 10735 10735 10734 10734 10734 10735 10737 10737 10738 10740 10741 10742 10745 10751 10760 10759 10752 10747 10746 10745 10739 10735 10733 10732 10735 10735 10729 10728 10729 10728 10728 10730 10729 10728 10727 10726 10725 10726 10729 10730 10722 10717 10720 10721 10720 10720 10719 10718 10715 10717 10724 10727 10723 10718 10720 10723 10723 10724 10724 10726 10729 10729 10729 10722 10720 10736 10742 10734 10724 10715 10706 10697 10696 10696 10687 10681 10678 10674 10677 10682 10685 10688
10730 10730 10729 10728 10728 10727 10728 10728 10726 10727 10727 10727 10729 10730 10731 10733 10734 10735 10737 10745 10755 10755 10750 10745 10741 10738 10732 10727 10725 10724 10727 10729 10725 10723 10724 10723 10724 10724 10724 10723 10720 10720 10720 10720 10723 10723 10716 10713 10713 10713 10715 10714 10711 10709 10709 10710 10715 10720 10718 10713 10714 10714 10716 10719 10718 10719 10721 10724 10728 10717 10708 10727 10740 10732 10722 10713 10704 10694 10689 10692 10688 10677 10670 10666 10668 10674 10677 10681
10723 10723 10722 10721 10721 10721 10720 10720 10719 10719 10719 10720 10721 10722 10724 10725 10727 10729 10731 10740 10750 10749 10746 10743 10737 10731 10726 10721 10718 10716 10718 10722 10720 10719 10718 10717 10719 10718 10718 10717 10714 10715 10714 10714 10718 10715 10710 10709 10707 10706 10708 10706 10704 10703 10703 10703 10706 10711 10711 10709 10708 10707 10709 10711 10711 10713 10713 10719 10725 10711 10701 10716 10732 10730 10719 10707 10701 10693 10685 10685 10683 10672 10663 10659 10661 10665 10670 10673
10715 10715 10715 10715 10714 10714 10712 10712 10712 10711 10711 10713 10713 10714 10716 10718 10721 10723 10727 10737 10744 10742 10739 10737 10733 10727 10719 10713 10711 10710 10711 10714 10714 10714 10712 10711 10713 10713 10712 10711 10709 10709 10708 10709 10712 10707 10704 10705 10702 10701 10700 10697 10697 10697 10697 10697 10699 10702 10703 10703 10702 10701 10704 10704 10705 10705 10705 10714 10719 10707 10699 10706 10721 10725 10712 10700 10698 10690 10683 10680 10674 10665 10657 10653 10654 10658 10663 10665
10706 10707 10707 10707 10707 10706 10705 10704 10703 10702 10702 10704 10704 10705 10707 10710 10713 10717 10726 10735 10734 10730 10730 10730 10727 10721 10713 10708 10705 10705 10705 10706 10706 10706 10705 10705 10706 10706 10706 10704 10702 10703 10702 10704 10704 10698 10698 10699 10698 10696 10692 10690 10690 10690 10691 10691 10692 10693 10694 10695 10693 10694 10696 10697 10699 10697 10697 10710 10711 10702 10699 10699 10710 10718 10703 10695 10694 10686 10680 10674 10664 10657 10651 10647 10648 10652 10656 10656
10699 10699 10699 10700 10698 10697 10697 10696 10695 10693 10693 10694 10695 10696 10698 10701 10706 10714 10726 10730 10721 10719 10722 10720 10716 10712 10707 10704 10703 10701 10699 10699 10698 10697 10698 10698 10699 10701 10700 10696 10695 10695 10695 10696 10694 10691 10692 10693 10691 10688 10685 10683 10683 10683 10684 10685 10685 10685 10685 10684 10683 10686 10688 10689 10692 10688 10689 10703 10703 10696 10696 10695 10703 10706 10694 10690 10688 10681 10676 10665 10653 10650 10645 10640 10642 10648 10649 10646
10692 10692 10692 10692 10690 10688 10687 10687 10685 10683 10684 10685 10684 10687 10689 10692 10703 10716 10722 10718 10711 10712 10712 10706 10704 10703 10699 10700 10700 10696 10693 10693 10691 10689 10690 10691 10693 10695 10693 10690 10688 10685 10686 10688 10684 10683 10686 10686 10683 10680 10677 10676 10677 10677 10677 10678 10678 10678 10676 10674 10673 10676 10677 10680 10683 10680 10684 10694 10693 10690 10690 10691 10698 10696 10686 10684 10679 10674 10669 10655 10645 10644 10637 10632 10637 10642 10641 10637
10684 10685 10686 10684 10682 10679 10676 10676 10675 10673 10674 10674 10674 10678 10678 10683 10703 10715 10711 10706 10702 10701 10699 10695 10694 10693 10691 10694 10695 10690 10687 10686 10684 10682 10682 10684 10688 10689 10687 10684 10680 10676 10676 10677 10675 10675 10678 10680 10677 10670 10669 10671 10670 10668 10668 10670 10671 10670 10669 10665 10666 10667 10663 10666 10673 10673 10678 10684 10682 10681 10681 10685 10691 10687 10682 10679 10670 10664 10660 10646 10639 10637 10628 10624 10631 10634 10630 10628
10675 10677 10678 10677 10674 10670 10667 10666 10665 10664 10663 10662 10664 10667 10669 10683 10703 10706 10699 10697 10691 10686 10687 10686 10684 10683 10684 10687 10687 10684 10679 10677 10677 10675 10675 10678 10682 10684 10682 10678 10673 10668 10665 10664 10666 10665 10665 10673 10673 10662 10661 10665 10662 10659 10660 10661 10662 10664 10662 10658 10660 10659 10648 10650 10662 10664 10666 10671 10674 10673 10672 10678 10682 10679 10678 10673 10660 10656 10651 10639 10633 10629 10620 10619 10624 10624 10620 10619
10666 10668 10669 10669 10665 10661 10658 10656 10656 10655 10651 10652 10653 10655 10667 10686 10694 10690 10689 10689 10680 10676 10676 10674 10673 10674 10677 10680 10679 10676 10671 10668 10670 10668 10668 10672 10675 10677 10677 10672 10666 10661 10656 10653 10654 10652 10652 10664 10668 10658 10656 10658 10654 10653 10652 10651 10654 10656 10655 10652 10652 10649 10640 10639 10647 10651 10649 10654 10666 10667 10663 10672 10674 10671 10673 10662 10648 10649 10644 10632 10628 10622 10614 10614 10616 10615 10611 10612
10657 10658 10658 10660 10658 10651 10649 10649 10648 10644 10641 10641 10640 10648 10669 10681 10677 10675 10679 10677 10672 10669 10664 10661 10664 10666 10670 10673 10671 10668 10662 10659 10661 10662 10662 10665 10667 10672 10673 10666 10659 10653 10650 10643 10638 10638 10641 10650 10658 10655 10652 10651 10648 10647 10647 10647 10647 10646 10646 10646 10642 10638 10637 10631 10630 10636 10635 10636 10652 10659 10657 10666 10669 10666 10665 10651 10639 10641 10635 10625 10622 10615 10607 10607 10608 10606 10604 10604
10646 10646 10648 10653 10650 10641 10640 10641 10637 10632 10631 10629 10630 10648 10666 10668 10663 10664 10665 10664 10662 10659 10652 10652 10658 10659 10660 10663 10664 10662 10653 10650 10655 10656 10654 10655 10660 10667 10666 10659 10653 10648 10642 10633 10625 10626 10627 10632 10645 10648 10645 10645 10642 10641 10645 10645 10640 10635 10636 10638 10634 10630 10630 10624 10618 10622 10623 10620 10635 10650 10650 10657 10663 10661 10656 10642 10633 10633 10627 10621 10618 10609 10601 10599 10600 10598 10596 10596
10633 10633 10639 10646 10640 10632 10631 10628 10624 10621 10618 10616 10626 10647 10656 10654 10654 10653 10650 10651 10651 10647 10644 10646 10650 10650 10650 10653 10656 10654 10645 10643 10647 10646 10644 10646 10654 10662 10658 10650 10646 10641 10634 10623 10615 10617 10615 10614 10629 10639 10636 10635 10636 10637 10641 10640 10632 10627 10629 10629 10627 10623 10620 10617 10609 10609 10611 10607 10617 10637 10644 10650 10656 10652 10642 10632 10626 10623 10619 10617 10613 10604 10595 10592 10593 10591 10590 10590
10619 10621 10631 10638 10629 10622 10621 10615 10610 10608 10604 10610 10625 10637 10642 10643 10645 10642 10639 10639 10637 10635 10637 10640 10640 10639 10641 10645 10645 10643 10638 10637 10637 10635 10635 10639 10646 10655 10652 10643 10637 10632 10626 10615 10607 10609 10605 10599 10610 10626 10626 10624 10630 10634 10633 10630 10624 10620 10621 10620 10619 10615 10609 10607 10603 10602 10602 10596 10599 10616 10631 10647 10652 10640 10629 10622 10616 10611 10608 10610 10607 10594 10586 10584 10584 10584 10583 10583
10605 10607 10618 10626 10618 10612 10610 10602 10598 10594 10594 10605 10618 10626 10632 10634 10632 10631 10628 10626 10625 10625 10627 10631 10630 10628 10633 10635 10632 10631 10629 10627 10629 10627 10626 10632 10638 10643 10642 10634 10627 10622 10616 10609 10603 10601 10595 10588 10593 10606 10612 10617 10626 10627 10624 10624 10619 10613 10611 10611 10611 10606 10597 10594 10596 10599 10596 10587 10589 10594 10608 10639 10648 10629 10619 10614 10604 10600 10599 10603 10600 10583 10575 10576 10575 10576 10576 10572
10587 10594 10608 10614 10605 10598 10594 10588 10588 10586 10586 10599 10611 10615 10617 10617 10618 10621 10618 10616 10617 10616 10615 10619 10619 10619 10622 10622 10620 10620 10616 10616 10621 10619 10618 10625 10627 10628 10630 10625 10617 10613 10608 10602 10598 10594 10587 10578 10578 10585 10597 10610 10619 10620 10618 10618 10615 10609 10606 10603 10601 10594 10587 10583 10585 10592 10588 10579 10584 10580 10585 10624 10638 10616 10608 10605 10595 10593 10590 10592 10591 10576 10568 10569 10568 10569 10567 10561
10567 10579 10595 10596 10589 10586 10579 10574 10579 10580 10582 10595 10603 10600 10597 10598 10605 10611 10610 10607 10605 10604 10605 10607 10609 10608 10608 10609 10610 10609 10605 10605 10610 10611 10611 10615 10616 10616 10616 10612 10607 10604 10599 10592 10590 10587 10577 10567 10565 10571 10583 10598 10608 10612 10612 10610 10608 10604 10601 10598 10592 10587 10585 10576 10570 10579 10579 10573 10580 10571 10569 10609 10627 10603 10592 10593 10588 10585 10579 10578 10579 10568 10562 10562 10560 10560 10556 10549
10552 10563 10573 10572 10572 10572 10564 10563 10572 10574 10577 10585 10585 10583 10584 10585 10590 10597 10600 10597 10593 10593 10594 10596 10599 10597 10596 10598 10598 10597 10596 10595 10599 10603 10601 10600 10605 10605 10601 10598 10598 10594 10589 10584 10581 10575 10564 10557 10556 10559 10569 10584 10596 10602 10604 10602 10598 10593 10593 10592 10587 10584 10582 10570 10565 10569 10567 10570 10577 10560 10556 10596 10614 10590 10580 10583 10579 10573 10567 10564 10564 10558 10555 10554 10550 10547 10543 10539
10538 10542 10548 10552 10553 10550 10548 10557 10564 10563 10566 10570 10568 10571 10575 10574 10578 10584 10586 10583 10581 10582 10583 10586 10588 10586 10585 10586 10584 10585 10587 10584 10589 10593 10587 10585 10592 10594 10588 10586 10586 10582 10577 10573 10568 10561 10553 10548 10547 10548 10557 10574 10586 10591 10592 10589 10583 10581 10585 10585 10581 10579 10573 10565 10564 10560 10558 10570 10570 10546 10546 10581 10593 10577 10574 10575 10566 10558 10554 10551 10551 10550 10548 10543 10537 10533 10532 10529
10523 10520 10526 10534 10533 10529 10536 10548 10550 10546 10551 10557 10555 10558 10560 10560 10567 10572 10570 10568 10569 10571 10573 10574 10575 10574 10574 10574 10573 10576 10577 10574 10573 10573 10571 10574 10580 10582 10579 10574 10572 10570 10565 10560 10555 10548 10541 10539 10540 10541 10548 10562 10575 10581 10578 10571 10567 10570 10576 10575 10572 10570 10565 10560 10558 10553 10555 10560 10550 10536 10543 10561 10568 10568 10570 10564 10547 10540 10542 10541 10540 10541 10536 10528 10522 10521 10521 10519
10507 10502 10506 10515 10513 10511 10520 10532 10531 10530 10538 10541 10539 10542 10545 10546 10552 10556 10554 10557 10562 10562 10559 10558 10560 10561 10564 10565 10565 10566 10565 10560 10555 10554 10560 10567 10567 10568 10566 10560 10557 10556 10551 10547 10541 10533 10529 10531 10537 10540 10541 10547 10559 10568 10565 10556 10554 10560 10564 10564 10562 10562 10558 10552 10550 10554 10551 10535 10526 10534 10539 10536 10545 10563 10567 10551 10528 10521 10531 10534 10529 10526 10522 10514 10510 10510 10509 10506
10490 10487 10492 10500 10498 10492 10501 10514 10516 10516 10522 10521 10518 10524 10529 10531 10535 10539 10543 10549 10552 10548 10542 10544 10548 10550 10553 10554 10550 10550 10551 10546 10541 10543 10552 10556 10551 10549 10548 10546 10544 10541 10539 10535 10529 10523 10519 10522 10533 10537 10533 10533 10542 10551 10550 10542 10541 10546 10547 10549 10554 10554 10549 10545 10548 10554 10540 10511 10506 10529 10531 10516 10527 10553 10556 10536 10514 10511 10524 10525 10516 10512 10508 10502 10500 10501 10498 10492
10476 10477 10480 10485 10481 10474 10483 10498 10502 10499 10499 10498 10499 10506 10511 10515 10521 10528 10534 10535 10532 10530 10529 10533 10539 10541 10542 10540 10533 10533 10536 10531 10529 10537 10544 10541 10534 10530 10531 10533 10530 10528 10527 10522 10519 10516 10508 10511 10525 10527 10520 10522 10530 10537 10536 10525 10523 10530 10530 10534 10543 10545 10540 10540 10545 10544 10524 10496 10494 10515 10518 10506 10518 10538 10533 10514 10506 10510 10515 10511 10504 10500 10495 10489 10490 10492 10487 10478
10463 10464 10467 10469 10466 10463 10469 10480 10481 10475 10476 10481 10484 10488 10494 10501 10509 10517 10519 10514 10513 10517 10516 10517 10528 10533 10530 10525 10517 10515 10519 10519 10523 10532 10532 10523 10516 10512 10513 10515 10515 10515 10516 10512 10511 10508 10499 10501 10514 10513 10505 10509 10521 10529 10521 10506 10505 10513 10514 10520 10534 10537 10531 10529 10531 10527 10511 10492 10491 10499 10496 10496 10515 10522 10503 10492 10501 10504 10498 10495 10493 10488 10480 10477 10478 10478 10471 10463
10451 10450 10455 10455 10449 10449 10452 10458 10460 10457 10461 10466 10466 10471 10482 10487 10494 10501 10500 10496 10498 10502 10498 10500 10514 10519 10511 10506 10500 10498 10509 10514 10513 10517 10513 10500 10495 10496 10497 10501 10505 10505 10503 10502 10501 10496 10488 10489 10498 10498 10489 10494 10513 10519 10502 10489 10490 10492 10496 10512 10530 10528 10516 10511 10512 10510 10501 10491 10488 10484 10474 10484 10507 10503 10481 10480 10493 10490 10482 10481 10478 10473 10469 10464 10461 10458 10452 10447
10440 10438 10440 10434 10429 10433 10437 10439 10440 10440 10443 10448 10452 10461 10468 10471 10480 10486 10480 10477 10481 10484 10483 10488 10497 10497 10488 10485 10484 10490 10503 10503 10493 10494 10493 10480 10477 10482 10486 10490 10493 10491 10490 10491 10487 10482 10478 10477 10483 10482 10469 10477 10500 10499 10481 10477 10473 10466 10482 10511 10521 10508 10494 10496 10499 10492 10486 10481 10476 10469 10464 10474 10490 10486 10470 10471 10478 10476 10471 10466 10462 10463 10460 10450 10441 10438 10434 10430
10428 10423 10423 10418 10411 10413 10420 10422 10422 10419 10424 10436 10445 10450 10451 10454 10465 10467 10458 10459 10469 10472 10471 10472 10476 10475 10468 10468 10476 10484 10486 10479 10473 10475 10472 10463 10462 10469 10473 10475 10477 10477 10478 10478 10473 10470 10468 10465 10468 10465 10452 10459 10479 10476 10464 10459 10449 10453 10483 10500 10493 10483 10482 10486 10485 10475 10468 10463 10458 10458 10460 10464 10472 10470 10459 10457 10463 10461 10454 10452 10454 10453 10446 10435 10426 10421 10419 10416